Simultaneous Nadir Overpasses (SNOs) Predictions

Prediction of SNOs between GOES-15 and METOP-A Satellite Orbit:

Table of predicted SNOs for the next 14.0 days since TLE Epoch: 5/5/2017
Index Date Time (GOES-15) GOES-15 Lat,Lon METOP-A Lat,Lon Distance(km) Time Diff (sec)
1 05/06/2017 06:15:18 0.10,-135.34 0.98,-131.37 452.13 80
2 05/07/2017 18:34:09 -0.10,-135.34 0.05,-135.93 67.84 80
3 05/08/2017 18:10:50 -0.10,-135.32 -1.08,-130.94 498.94 80
4 05/10/2017 06:29:49 0.10,-135.25 0.04,-135.53 31.84 80
5 05/12/2017 18:28:01 -0.11,-135.22 -0.14,-135.10 13.97 80
6 05/15/2017 06:29:01 0.12,-135.12 0.23,-134.70 47.62 80
7 05/16/2017 18:47:52 -0.12,-135.11 0.80,-139.26 473.69 80
8 05/17/2017 18:24:32 -0.12,-135.07 -0.33,-134.27 91.66 80
9 05/19/2017 06:43:31 0.13,-134.98 -0.76,-138.85 442.02 80




NCC Satellite Simultaneous Nadir Overpasses (SNOs) Prediction Service
